Regional Weather Roundup
Issued by NWS

Home | Current Version | Previous Version | Text Only | Print | Product List | Glossary Off
Versions: 1 2 3 4 5 6 7 8 9 10 11 12 13 14 15 16 17 18 19 20 21 22 23 24 25 26 27 28 29 30 31 32 33 34 35 36 37 38 39 40 41 42 43 44 45 46 47 48 49 50

000
ASUS45 KTFX 230204
RWRMT
MONTANA HOURLY WEATHER ROUNDUP
NATIONAL WEATHER SERVICE GREAT FALLS MT
704 PM MST SAT NOV 22 2014

NOTE: "FAIR" INDICATES FEW OR NO CLOUDS BELOW 12000 FEET WITH NO
SIGNIFICANT WEATHER AND/OR OBSTRUCTIONS TO VISIBILITY.

* THESE STATIONS ARE NOT UNDER NWS QUALITY CONTROL. THEY DO NOT
   REPORT WEATHER SUCH AS PRECIPITATION OR FOG.

MTZ001>007-043-230300-
WEST OF THE DIVIDE
CITY           SKY/WX    TMP DP  RH WIND       PRES   REMARKS
KALISPELL      MOCLDY    34  25  70 N/A       29.68R
MISSOULA       CLOUDY    36  28  73 N5        29.74R WCI  32
BUTTE          PTCLDY    27  19  72 NW5       29.67R WCI  21
MULLAN PASS    HVY SNOW  25  23  92 NW6       29.69R VSB M1/4 WCI  18
* LINCOLN      N/A       32  23  69 SW6G19     N/A   WCI  26
* LOOKOUT PASS N/A       29  27  92 NE6        N/A   WCI  23
* POLSON       N/A       34  25  70 W3G11      N/A
* RONAN APT    PTCLDY    36  28  73 N/A        N/A
* SEELEY LAKE  N/A       34  23  64 N6G17      N/A   WCI  29
* THOMP F APT  MOCLDY    24  14  66 N4G14      N/A
* YAAK HILL    N/A       38  22  53 W1         N/A
$$

MTZ008-052>055-230300-
SOUTHWEST MONTANA
CITY           SKY/WX    TMP DP  RH WIND       PRES   REMARKS
BOZEMAN        MOCLDY    36  19  50 W13       29.65R WCI  27
DILLON         PTCLDY    34  16  48 SW20G33   29.68R WCI  23
* W YELLOWSTON PTCLDY    20  15  81 SW4        N/A
* ENNIS APT    PTCLDY    34  14  44 SE3        N/A
* THREE FORKS  PTCLDY    39  18  43 W13        N/A   WCI  31
* BOULDER HILL N/A       31  10  41 S10G20     N/A   WCI  22
* MONIDA PASS  N/A       21   9  60 NW7        N/A   WCI  12
* RAYNOLDS PAS N/A       19  -7  31 E3         N/A
* WHITEHALL    N/A       33  15  47 NW7G13     N/A   WCI  27
* WISE RIVER   N/A       30  19  64 W14G20     N/A   WCI  19
$$

MTZ009>010-012-014-046-048-049-054-230300-
EAST SLOPES AND CENTRAL MONTANA
CITY           SKY/WX    TMP DP  RH WIND       PRES   REMARKS
CUT BANK       PTCLDY    34  19  54 W25G35    29.47R WCI  21
GREAT FALLS    PTCLDY    36  18  48 W16       29.52R WCI  26
HELENA         PTCLDY    37  21  52 W12       29.63R WCI  29
MALMSTROM AFB  MOCLDY    39  18  43 W18G26    29.54R WCI  30
* DEARBORN     N/A       41  15  35 S18G24     N/A
* EAST GLACIER N/A       31  17  56 NW22G34    N/A   WCI  18
* MONARCH      N/A       32  12  43 W17G26     N/A   WCI  21
* PENDROY      N/A       34  16  48 NW22G32    N/A   WCI  22
* ROGERS PASS  N/A       28  20  72 E12G38     N/A   WCI  18
* SAINT MARY   N/A       32  20  61 S9G21      N/A   WCI  24
* SWEET GRASS  N/A       36  21  54 W22G29     N/A   WCI  25
$$

MTZ011-013-016-021-035-040-045-047-050-051-230300-
NORTH CENTRAL MONTANA
CITY           SKY/WX    TMP DP  RH WIND       PRES   REMARKS
HAVRE          LGT RAIN  37  32  82 W22G29    29.44R WCI  26
LEWISTOWN      CLOUDY    39  18  43 W23G35    29.50R WCI  28
* N BAR RANCH  MOCLDY    37  12  36 NW21G38   29.46R WCI  26
* CHESTER      N/A       39  23  53 W25G38     N/A   WCI  28
* DENTON       N/A       38  18  44 W27G38     N/A   WCI  26
* GEYSER       N/A       36  13  39 W17        N/A   WCI  26
* JUDITH GAP   N/A       35  13  40 W12G17     N/A   WCI  27
* LOMA         N/A       41  25  53 SW29G40    N/A
$$

MTZ017>020-022>027-061-062-230300-
NORTHEAST MONTANA
CITY           SKY/WX    TMP DP  RH WIND       PRES   REMARKS
GLASGOW        PTCLDY    39  27  62 W23G32    29.29S WCI  28
GLENDIVE       CLOUDY    43  30  60 W10       29.36S
JORDAN         PTCLDY    39  25  57 W18       29.37R WCI  30
SIDNEY         PTCLDY    34  30  85 SW6       29.34R WCI  29
WOLF POINT     CLEAR     37  28  70 W9        29.30R WCI  30
* BEAVER HILL  N/A       41  34  76 SW19G27    N/A
* CIRCLE       N/A       39  30  70 SW4        N/A
* LINDSAY DVD  N/A       41  27  58 SW15G20    N/A
* NAVAJO       N/A       38  26  62 SW20G27    N/A   WCI  28
* SACO         N/A       41  29  62 SW26G34    N/A
$$

MTZ028>042-056>058-230300-
SOUTHCENTRAL AND SOUTHEAST MONTANA
CITY           SKY/WX    TMP DP  RH WIND       PRES   REMARKS
BAKER          CLOUDY    43  32  65 W20G28    29.39R
BILLINGS       PTCLDY    39  18  43 W15       29.52R WCI  31
LIVINGSTON     CLOUDY    37  18  46 N6        29.59R WCI  32
MILES CITY     CLOUDY    46  28  50 W17       29.41R
* LAUREL APT   CLEAR     41  16  36 SW13       N/A
* ALZADA       N/A       42  30  63 W1         N/A
* HYSHAM       N/A       43  16  34 W11G20     N/A
* LAME DEER    N/A       37  32  82 W17G26     N/A   WCI  27
* REED POINT   N/A       42  18  38 W22G33     N/A
* ROSCOE HILL  N/A       35   3  26 W8G24      N/A   WCI  28
$$

REGIONAL REPORTS...DAKOTAS
CITY           SKY/WX    TMP DP  RH WIND       PRES   REMARKS
WILLISTON      PTCLDY    34  30  85 SW8       29.30R WCI  27
DICKINSON      PTCLDY    37  34  89 SW12      29.31S WCI  29
BEACH          PTCLDY    39  36  89 W13       29.35S WCI  31
CROSBY         CLEAR     32  32 100 SW12      29.23S WCI  23
BISMARCK       PTCLDY    34  32  92 SW5       29.34F WCI  29
GRAND FORKS    CLOUDY    37  30  76 S12       29.37F WCI  29
FARGO          FOG       36  30  79 S20G31    29.41F WCI  25
BUFFALO SD     MOCLDY    39  30  70 W12       29.34R WCI  32
RAPID CITY     CLOUDY    45  30  56 E3        29.42R
$$

REGIONAL REPORTS...WYOMING/IDAHO/WASHINGTON
CITY           SKY/WX    TMP DP  RH WIND       PRES   REMARKS
GILLETTE       CLOUDY    36  32  85 NW24G33   29.49R WCI  24
SHERIDAN       CLOUDY    37  32  82 W7        29.52R WCI  32
CODY           MOCLDY    39   9  29 W8G17     29.58R WCI  33
YELLOWSTONE LA MOCLDY    18  10  71 W5        29.68R WCI  11
SALMON         MOCLDY    32  19  59 CALM      29.75R
MULLAN PASS    HVY SNOW  25  23  92 NW6       29.69S VSB M1/4 WCI  18
SAND POINT     PTCLDY    37  32  82 SW9G17    29.78R WCI  30
SPOKANE        PTCLDY    36  32  85 SW14      29.80R WCI  27
$$

REGIONAL REPORTS...ALBERTA
CITY           SKY/WX    TMP DP  RH WIND       PRES   REMARKS
LETHBRIDGE     LGT RAIN  41  23  49 W28G36    29.47R
$$

REGIONAL REPORTS...SASKATCHEWAN
CITY           SKY/WX    TMP DP  RH WIND       PRES   REMARKS
SWIFT CURRENT  LGT SNOW  32  30  92 W28G36    29.14R VSB 3    WCI  18

$$




USA.gov is the U.S. government's official web portal to all federal, state and local government web resources and services.